• în Republica Moldova
  • Lista ţărilor
  • Pe 7 zile
  • Temperatura apei
  • Hartă satelitară
  • Meteo pe hartă
  • Widget-uri
  • user-avatar
    Intrare

    Meteo pe oră la Lubango

    Astăzi, 30 Aprilie, Duminică

    Timp Temperatura Precipitaţii Vânt Presiune Umiditate
    00:00 +13°C° 0 mm 1 m/s 609 mmHg 68%
    01:00 +13°C° 0 mm 1 m/s 609 mmHg 69%
    02:00 +13°C° 0 mm 1 m/s 609 mmHg 69%
    03:00 +13°C° 0 mm 2 m/s 609 mmHg 69%
    04:00 +13°C° 0 mm 2 m/s 609 mmHg 70%
    05:00 +13°C° 0 mm 2 m/s 609 mmHg 69%
    06:00 +13°C° 0 mm 2 m/s 609 mmHg 69%
    07:00 +14°C° 0 mm 2 m/s 610 mmHg 66%
    08:00 +17°C° 0 mm 3 m/s 611 mmHg 58%
    09:00 +19°C° 0 mm 3 m/s 612 mmHg 50%
    10:00 +22°C° 0 mm 4 m/s 613 mmHg 41%
    11:00 +24°C° 0 mm 3 m/s 613 mmHg 37%
    12:00 +26°C° 0 mm 3 m/s 613 mmHg 33%
    13:00 +27°C° 0 mm 3 m/s 613 mmHg 30%
    14:00 +27°C° 0 mm 2 m/s 613 mmHg 31%
    15:00 +27°C° 0 mm 2 m/s 612 mmHg 31%
    16:00 +27°C° 0 mm 2 m/s 612 mmHg 31%
    17:00 +24°C° 0 mm 2 m/s 611 mmHg 37%
    18:00 +20°C° 0 mm 2 m/s 610 mmHg 44%
    19:00 +16°C° 0 mm 2 m/s 609 mmHg 50%
    20:00 +16°C° 0 mm 2 m/s 609 mmHg 52%
    21:00 +15°C° 0 mm 2 m/s 609 mmHg 53%
    22:00 +14°C° 0 mm 2 m/s 609 mmHg 55%
    23:00 +14°C° 0 mm 2 m/s 609 mmHg 55%

    Mâine, 1 Mai, Luni

    Timp Temperatura Precipitaţii Vânt Presiune Umiditate
    00:00 +14°C° 0 mm 2 m/s 608 mmHg 56%
    01:00 +13°C° 0 mm 2 m/s 608 mmHg 56%
    02:00 +13°C° 0 mm 2 m/s 608 mmHg 57%
    03:00 +13°C° 0 mm 2 m/s 608 mmHg 59%
    04:00 +12°C° 0 mm 2 m/s 608 mmHg 60%
    05:00 +12°C° 0 mm 2 m/s 608 mmHg 60%
    06:00 +13°C° 0 mm 2 m/s 608 mmHg 61%
    07:00 +13°C° 0 mm 2 m/s 609 mmHg 61%
    08:00 +16°C° 0 mm 2 m/s 610 mmHg 53%
    09:00 +19°C° 0 mm 3 m/s 611 mmHg 44%
    10:00 +22°C° 0 mm 3 m/s 613 mmHg 36%
    11:00 +24°C° 0 mm 3 m/s 612 mmHg 33%
    12:00 +26°C° 0 mm 3 m/s 612 mmHg 30%
    13:00 +27°C° 0 mm 2 m/s 612 mmHg 26%
    14:00 +27°C° 0 mm 2 m/s 612 mmHg 27%
    15:00 +26°C° 0 mm 2 m/s 611 mmHg 27%
    16:00 +26°C° 0 mm 1 m/s 611 mmHg 28%
    17:00 +23°C° 0 mm 2 m/s 610 mmHg 34%
    18:00 +19°C° 0 mm 2 m/s 609 mmHg 40%
    19:00 +15°C° 0 mm 2 m/s 608 mmHg 46%
    20:00 +15°C° 0 mm 2 m/s 608 mmHg 48%
    21:00 +14°C° 0 mm 2 m/s 608 mmHg 50%
    22:00 +13°C° 0 mm 2 m/s 608 mmHg 53%
    23:00 +13°C° 0 mm 2 m/s 608 mmHg 52%

    Poimâine, 2 Mai, Marţi

    Timp Temperatura Precipitaţii Vânt Presiune Umiditate
    00:00 +13°C° 0 mm 2 m/s 608 mmHg 52%
    01:00 +12°C° 0 mm 2 m/s 608 mmHg 52%
    02:00 +12°C° 0 mm 2 m/s 608 mmHg 53%
    03:00 +12°C° 0 mm 2 m/s 607 mmHg 54%
    04:00 +12°C° 0 mm 2 m/s 607 mmHg 56%
    05:00 +12°C° 0 mm 2 m/s 608 mmHg 57%
    06:00 +12°C° 0 mm 2 m/s 608 mmHg 57%
    07:00 +12°C° 0 mm 2 m/s 608 mmHg 58%
    08:00 +14°C° 0 mm 3 m/s 610 mmHg 51%
    09:00 +18°C° 0 mm 3 m/s 611 mmHg 44%
    10:00 +21°C° 0 mm 4 m/s 612 mmHg 37%
    11:00 +24°C° 0 mm 3 m/s 612 mmHg 34%
    12:00 +25°C° 0 mm 3 m/s 612 mmHg 31%
    13:00 +26°C° 0 mm 2 m/s 612 mmHg 27%
    14:00 +26°C° 0 mm 2 m/s 611 mmHg 28%
    15:00 +26°C° 0 mm 1 m/s 611 mmHg 28%
    16:00 +26°C° 0 mm 1 m/s 610 mmHg 28%
    17:00 +22°C° 0 mm 1 m/s 609 mmHg 40%
    18:00 +18°C° 0 mm 1 m/s 608 mmHg 51%
    19:00 +13°C° 0 mm 1 m/s 607 mmHg 63%
    20:00 +13°C° 0 mm 1 m/s 607 mmHg 61%
    21:00 +13°C° 0 mm 1 m/s 607 mmHg 59%
    22:00 +12°C° 0 mm 1 m/s 608 mmHg 57%
    23:00 +12°C° 0 mm 1 m/s 608 mmHg 58%

    3 Mai, Miercuri

    Timp Temperatura Precipitaţii Vânt Presiune Umiditate
    00:00 +12°C° 0 mm 2 m/s 607 mmHg 58%
    01:00 +12°C° 0 mm 2 m/s 607 mmHg 58%
    02:00 +10°C° 0 mm 2 m/s 607 mmHg 58%
    03:00 +10°C° 0 mm 2 m/s 607 mmHg 59%
    04:00 +10°C° 0 mm 2 m/s 607 mmHg 59%
    05:00 +10°C° 0 mm 2 m/s 607 mmHg 60%
    06:00 +12°C° 0 mm 2 m/s 608 mmHg 60%
    07:00 +12°C° 0 mm 2 m/s 608 mmHg 61%
    08:00 +14°C° 0 mm 3 m/s 609 mmHg 53%
    09:00 +18°C° 0 mm 3 m/s 611 mmHg 45%
    10:00 +22°C° 0 mm 3 m/s 612 mmHg 37%
    11:00 +24°C° 0 mm 3 m/s 612 mmHg 34%
    12:00 +25°C° 0 mm 2 m/s 612 mmHg 31%
    13:00 +27°C° 0 mm 2 m/s 612 mmHg 28%
    14:00 +26°C° 0 mm 1 m/s 611 mmHg 30%
    15:00 +26°C° 0 mm 1 m/s 611 mmHg 32%
    16:00 +24°C° 0 mm 0 m/s 610 mmHg 33%
    17:00 +20°C° 0 mm 0 m/s 609 mmHg 44%
    18:00 +17°C° 0 mm 0 m/s 608 mmHg 54%
    19:00 +13°C° 0 mm 0 m/s 607 mmHg 65%
    20:00 +12°C° 0 mm 0 m/s 607 mmHg 66%
    21:00 +13°C° 0 mm 1 m/s 607 mmHg 68%
    22:00 +12°C° 0 mm 1 m/s 607 mmHg 69%
    23:00 +12°C° 0 mm 1 m/s 607 mmHg 69%

    4 Mai, Joi

    Timp Temperatura Precipitaţii Vânt Presiune Umiditate
    00:00 +11°C° 0 mm 1 m/s 607 mmHg 69%
    01:00 +11°C° 0 mm 1 m/s 607 mmHg 69%
    02:00 +11°C° 0 mm 1 m/s 607 mmHg 67%
    03:00 +11°C° 0 mm 1 m/s 607 mmHg 65%
    04:00 +11°C° 0 mm 1 m/s 607 mmHg 63%
    05:00 +12°C° 0 mm 2 m/s 607 mmHg 63%
    06:00 +12°C° 0 mm 2 m/s 608 mmHg 63%
    07:00 +12°C° 0 mm 2 m/s 608 mmHg 63%
    08:00 +16°C° 0 mm 2 m/s 610 mmHg 55%
    09:00 +19°C° 0 mm 3 m/s 611 mmHg 47%
    10:00 +22°C° 0 mm 3 m/s 612 mmHg 40%
    11:00 +25°C° 0 mm 2 m/s 612 mmHg 36%
    12:00 +26°C° 0 mm 2 m/s 612 mmHg 32%
    13:00 +28°C° 0 mm 2 m/s 612 mmHg 28%
    14:00 +27°C° 0 mm 1 m/s 611 mmHg 29%
    15:00 +27°C° 0 mm 1 m/s 611 mmHg 31%
    16:00 +25°C° 0 mm 0 m/s 610 mmHg 32%
    17:00 +21°C° 0 mm 0 m/s 609 mmHg 43%
    18:00 +17°C° 0 mm 0 m/s 608 mmHg 53%
    19:00 +15°C° 0 mm 1 m/s 607 mmHg 63%
    20:00 +14°C° 0 mm 1 m/s 607 mmHg 64%
    21:00 +14°C° 0 mm 1 m/s 607 mmHg 65%
    22:00 +13°C° 0 mm 1 m/s 607 mmHg 65%
    23:00 +13°C° 0 mm 1 m/s 607 mmHg 64%

    5 Mai, Vineri

    Timp Temperatura Precipitaţii Vânt Presiune Umiditate
    00:00 +13°C° 0 mm 1 m/s 607 mmHg 63%
    01:00 +13°C° 0 mm 1 m/s 607 mmHg 62%
    02:00 +13°C° 0 mm 1 m/s 607 mmHg 61%
    03:00 +13°C° 0 mm 2 m/s 607 mmHg 59%
    04:00 +13°C° 0 mm 2 m/s 607 mmHg 58%
    05:00 +13°C° 0 mm 2 m/s 607 mmHg 58%
    06:00 +13°C° 0 mm 2 m/s 608 mmHg 58%
    07:00 +13°C° 0 mm 2 m/s 608 mmHg 58%
    08:00 +16°C° 0 mm 2 m/s 609 mmHg 50%
    09:00 +20°C° 0 mm 3 m/s 611 mmHg 43%
    10:00 +24°C° 0 mm 3 m/s 612 mmHg 36%
    11:00 +25°C° 0 mm 3 m/s 612 mmHg 33%
    12:00 +26°C° 0 mm 2 m/s 612 mmHg 30%
    13:00 +28°C° 0 mm 2 m/s 611 mmHg 27%
    14:00 +27°C° 0 mm 2 m/s 611 mmHg 29%
    15:00 +27°C° 0 mm 1 m/s 611 mmHg 30%
    16:00 +27°C° 0 mm 1 m/s 610 mmHg 32%
    17:00 +23°C° 0 mm 1 m/s 609 mmHg 41%
    18:00 +20°C° 0 mm 1 m/s 608 mmHg 50%
    19:00 +15°C° 0 mm 1 m/s 607 mmHg 59%
    20:00 +15°C° 0 mm 1 m/s 607 mmHg 58%
    21:00 +14°C° 0 mm 1 m/s 607 mmHg 57%
    22:00 +14°C° 0 mm 1 m/s 608 mmHg 56%
    23:00 +14°C° 0 mm 1 m/s 607 mmHg 56%
    Arată mai mult